Simultaneous Nadir Overpasses (SNOs) Predictions

Prediction of SNOs between AQUA and GOES-15 Satellite Orbit:

Table of predicted SNOs for the next 14.0 days since TLE Epoch: 12/2/2023
Index Date Time (AQUA) AQUA Lat,Lon GOES-15 Lat,Lon Distance(km) Time Diff (sec)
1 12/03/2023 21:50:06 -0.18, 61.92 -0.01, 61.22 79.62 80
2 12/04/2023 10:10:43 -0.90, 56.93 0.03, 61.28 495.71 80
3 12/06/2023 09:55:33 -0.13, 60.63 0.03, 61.24 69.74 80
4 12/08/2023 09:40:23 0.67, 64.34 0.02, 61.20 356.55 80
5 12/08/2023 22:00:52 0.31, 59.37 -0.04, 61.12 198.45 80
6 12/10/2023 21:45:39 -0.47, 63.08 -0.03, 61.09 227.48 80
7 12/11/2023 10:06:15 -0.64, 58.11 0.04, 61.17 348.84 80
8 12/13/2023 09:51:01 0.19, 61.82 0.03, 61.14 77.15 80
9 12/13/2023 22:11:29 0.87, 56.87 -0.05, 61.05 476.40 80
10 12/15/2023 21:56:13 0.05, 60.59 -0.04, 61.04 50.93 80
